Location: Newark
(47.5833°N, 8.1500°E)
Time: 23:18:02
(UTC+00:00)

Tiros 1 despin weight - Pass Details

Date: 01 November 2020
Orbit: 593 x 642 km, 48.2° (Epoch: 29 November)

Event Time Altitude Azimuth Distance (km) Brightness Sun altitude
Rises 22:07:35 0° 226° (SW) 2,881 - -54.7°
Reaches altitude 10° 22:10:01 10° 218° (SW) 1,969 - -54.9°
Maximum altitude 22:14:12 38° 150° (SSE) 928 - -55.2°
Drops below altitude 10° 22:18:21 10° 82° (E) 1,949 - -55.5°
Sets 22:20:45 0° 75° (ENE) 2,848 - -55.6°
